"Pseudo-MPEC" for C92CKE2

Created 2023 Apr 3 10:22:07 UT using Find_Orb

Click here for an explanation of pseudo-MPECs

 
 Astrometry: 
     C92CKE2*1C2023 04 01.38808715 41 39.592+31 16 08.69   ~41Ab 21.27GVNEOCPG96
     C92CKE2 1C2023 04 01.39330215 41 39.232+31 15 47.27   ~41Ab 21.76GVNEOCPG96
     C92CKE2 1C2023 04 01.39851815 41 38.857+31 15 25.31   ~41Ab 20.87GVNEOCPG96
     C92CKE2 1C2023 04 01.40375915 41 38.440+31 15 04.10   ~41Ab 20.50GVNEOCPG96
     C92CKE2 KC2023 04 01.49755115 41 31.844+31 08 32.42   ~41Cb 22.13GVNEOCPI52
     C92CKE2 KC2023 04 01.50069215 41 31.535+31 08 18.71   ~41Cb 20.92GVNEOCPI52
     C92CKE2 KC2023 04 01.50376415 41 31.409+31 08 06.07   ~41Cb 21.16GVNEOCPI52
     C92CKE2 KC2023 04 01.50679215 41 31.214+31 07 53.00   ~41Cb 21.12GVNEOCPI52
     C92CKE2 KC2023 04 02.35146715 41 18.726+30 12 33.59   ~4297 20.57GVNEOCPI52
     C92CKE2 KC2023 04 02.35446915 41 18.506+30 12 23.29   ~4297 21.19GVNEOCPI52
     C92CKE2 KC2023 04 02.35745915 41 18.287+30 12 12.38   ~4297 21.44GVNEOCPI52
     C92CKE2 KC2023 04 02.36044915 41 18.006+30 12 01.48   ~4297 20.94GVNEOCPI52
     C92CKE2 DC2023 04 03BEg7Sf8.hlx-8T_b=!qMo5#m5;4WaQxAstrometryx*ej9-q_+XQ695
     C92CKE2 DC2023 04 039=94n3a=iPt\e6qwQHuredacted;O,:tyGE^,#5Ft(bcPO$click695
     C92CKE2 DC2023 04 03mUh!tXLq/tG8Zaf4c1rhereohbfor;=explanationDWu`*B%9dZ695

Station data:
(695) Kitt Peak  (N31.958395 W111.594670)  US/Arizona. Measurer S. Deen.
   3.5-m f/1.75 reflector + CCD0.9-m f/7.5 reflector + CCD4.0-m
   Ritchey-Chrétien + CCD0.61-m f/3.5 Schmidt + CCD2.3-m f/9 reflector + CCD.
(G96) Mt. Lemmon Survey  (N32.442751 W110.788720)  US/Arizona.  Observer E.
   J. Christensen. 1.5-m reflector + 10K CCD.
(I52) Steward Observatory, Mt. Lemmon Station  (N32.442544 W110.788920)
   US/Arizona.  Observers T. A. Pruyne, B. M. Africano, E. J. Christensen, G.
   A. Farneth, D. C. Fuls, A. R. Gibbs, A. D. Grauer, H. Gröller, J. A.
   Johnson, R. A. Kowalski, S. M. Larson, G. J. Leonard, D. Rankin, R. L.
   Seaman, F. C. Shelly, K. W. Wierzchoś. 1.0-m prime focus + CCD.

Orbital elements:  C92CKE2
   Perihelion 2023 Feb 28.50566 +/- 0.0253 TT = 12:08:09 (JD 2460004.00566)
Epoch 2023 Apr  3.0 TT = JDT 2460037.5   Earth MOID: 0.0112      AutoNEOCP
M  13.09596705 +/- 0.11             (J2000 ecliptic)
n   0.39099048 +/- 0.00322          Peri.  345.80914 +/- 0.052
a   1.85221725 +/- 0.0102           Node   168.76880 +/- 0.049
e   0.4759798 +/- 0.00293           Incl.    7.56655 +/- 0.035
P   2.52/920.72d           H 25.07  G  0.15   U  8.9
q 0.97059918 +/- 0.000113    Q 2.73383532 +/- 0.0204
From 15 observations 2023 Apr. 1-3 (47.9 hr); mean residual 0".39
Residuals in arcseconds: 
230401 G96  .31+  .45+    230401 I52  .91-  .44-    230402 I52  .32-  .16+    
230401 G96  .38+  .31+    230401 I52  .12+  .02-    230402 I52  1.4-  .04+    
230401 G96  .29+  .31-    230401 I52  .22+  .19-    230403 695  .08+  .04-    
230401 G96  .30-  .05-    230402 I52  .33+  .20-    230403 695  .20+  .00     
230401 I52  .33+  .08-    230402 I52  .01-  .30+    230403 695  .20+  .04-    

Ephemerides (geocentric):
Date (UTC) HH   RA             Dec           delta  r     elong  mag " sig PA
---- --------  ------------   ------------  ------ ------ -----  --- --------
2023 04 03 10  15 40 48.754   +29 09 53.01  .08292 1.0508 126.2 21.7 .209 102
2023 04 03 11  15 40 47.685   +29 07 33.78  .08311 1.0509 126.2 21.7 .213 101
2023 04 03 12  15 40 46.613   +29 05 15.12  .08331 1.0511 126.3 21.7 .216 101
2023 04 03 13  15 40 45.538   +29 02 57.05  .08351 1.0513 126.3 21.7 .219 100
2023 04 03 14  15 40 44.461   +29 00 39.54  .08370 1.0515 126.3 21.7 .223 100
2023 04 03 15  15 40 43.380   +28 58 22.61  .08390 1.0517 126.4 21.7 .226 100
2023 04 03 16  15 40 42.297   +28 56 06.24  .08410 1.0519 126.4 21.7 .229  99
2023 04 03 17  15 40 41.211   +28 53 50.44  .08430 1.0520 126.5 21.7 .233  99
2023 04 03 18  15 40 40.122   +28 51 35.19  .08449 1.0522 126.5 21.7 .236  99
2023 04 03 19  15 40 39.030   +28 49 20.49  .08469 1.0524 126.6 21.7 .239  98
2023 04 03 20  15 40 37.935   +28 47 06.35  .08489 1.0526 126.6 21.7 .243  98
2023 04 03 21  15 40 36.837   +28 44 52.75  .08509 1.0528 126.6 21.7 .246  98
2023 04 03 22  15 40 35.737   +28 42 39.69  .08529 1.0530 126.7 21.7 .249  97
2023 04 03 23  15 40 34.633   +28 40 27.17  .08548 1.0532 126.7 21.7 .253  97
2023 04 04 00  15 40 33.527   +28 38 15.19  .08568 1.0533 126.8 21.7 .256  97
2023 04 04 01  15 40 32.418   +28 36 03.73  .08588 1.0535 126.8 21.7 .259  96
2023 04 04 02  15 40 31.306   +28 33 52.81  .08608 1.0537 126.8 21.8 .263  96
2023 04 04 03  15 40 30.192   +28 31 42.40  .08627 1.0539 126.9 21.8 .266  96
2023 04 04 04  15 40 29.074   +28 29 32.52  .08647 1.0541 126.9 21.8 .269  95
2023 04 04 05  15 40 27.954   +28 27 23.15  .08667 1.0543 127.0 21.8 .273  95
2023 04 04 06  15 40 26.830   +28 25 14.29  .08687 1.0545 127.0 21.8 .276  95
2023 04 04 07  15 40 25.704   +28 23 05.95  .08707 1.0547 127.0 21.8 .279  94
2023 04 04 08  15 40 24.575   +28 20 58.10  .08727 1.0548 127.1 21.8 .283  94
2023 04 04 09  15 40 23.444   +28 18 50.76  .08746 1.0550 127.1 21.8 .286  94
2023 04 04 10  15 40 22.309   +28 16 43.92  .08766 1.0552 127.2 21.8 .290  94
2023 04 04 11  15 40 21.172   +28 14 37.57  .08786 1.0554 127.2 21.8 .293  93
2023 04 04 12  15 40 20.032   +28 12 31.71  .08806 1.0556 127.2 21.8 .296  93
2023 04 04 13  15 40 18.889   +28 10 26.34  .08826 1.0558 127.3 21.8 .300  93
2023 04 04 14  15 40 17.743   +28 08 21.46  .08845 1.0560 127.3 21.8 .303  92
2023 04 04 15  15 40 16.594   +28 06 17.05  .08865 1.0562 127.4 21.8 .306  92
2023 04 04 16  15 40 15.443   +28 04 13.13  .08885 1.0563 127.4 21.8 .310  92
2023 04 04 17  15 40 14.289   +28 02 09.68  .08905 1.0565 127.4 21.8 .313  91
2023 04 04 18  15 40 13.132   +28 00 06.70  .08925 1.0567 127.5 21.8 .317  91
2023 04 04 19  15 40 11.972   +27 58 04.18  .08945 1.0569 127.5 21.8 .320  91
2023 04 04 20  15 40 10.809   +27 56 02.14  .08965 1.0571 127.6 21.8 .324  91
2023 04 04 21  15 40 09.644   +27 54 00.55  .08984 1.0573 127.6 21.8 .327  90
2023 04 04 22  15 40 08.476   +27 51 59.42  .09004 1.0575 127.6 21.8 .331  90
2023 04 04 23  15 40 07.305   +27 49 58.75  .09024 1.0577 127.7 21.8 .334  90
2023 04 05 00  15 40 06.132   +27 47 58.53  .09044 1.0579 127.7 21.8 .338  89
2023 04 05 01  15 40 04.955   +27 45 58.76  .09064 1.0581 127.8 21.8 .341  89
2023 04 05 02  15 40 03.776   +27 43 59.44  .09084 1.0582 127.8 21.8 .345  89
2023 04 05 03  15 40 02.594   +27 42 00.56  .09104 1.0584 127.8 21.8 .348  89
2023 04 05 04  15 40 01.409   +27 40 02.12  .09124 1.0586 127.9 21.9 .352  88
2023 04 05 05  15 40 00.222   +27 38 04.11  .09144 1.0588 127.9 21.9 .355  88
2023 04 05 06  15 39 59.031   +27 36 06.55  .09163 1.0590 128.0 21.9 .359  88
2023 04 05 07  15 39 57.838   +27 34 09.41  .09183 1.0592 128.0 21.9 .363  87
2023 04 05 08  15 39 56.643   +27 32 12.70  .09203 1.0594 128.0 21.9 .366  87
2023 04 05 09  15 39 55.444   +27 30 16.41  .09223 1.0596 128.1 21.9 .370  87